Weather History for KENV - June, 2013

Change the Weather History Date:

Wednesday, June 12, 2013

  Actual Average Record
Temperature  
Mean Temperature 81 °F -  
Max Temperature 93 °F 79 °F 98 °F (1936)
Min Temperature 69 °F 56 °F 44 °F (2001)
Cooling Degree Days 16    
Growing Degree Days 31 (Base 50)    
Moisture  
Dew Point 33 °F    
Average Humidity 18    
Maximum Humidity 31    
Minimum Humidity 10    
Precipitation  
Precipitation 0.00 in - - ()
Sea Level Pressure  
Sea Level Pressure 29.92 in    
Wind  
Wind Speed 13 mph (SSW)    
Max Wind Speed 39 mph    
Max Gust Speed 51 mph    
Visibility 10 miles    
Events      
Averages and records for this station are not official NWS values.
T = Trace of Precipitation, MM = Missing Value Source: NWS Daily Summary

Daily Weather History Graph

Daily Weather History Graph

Search for Another Location

Airport or City:

Trip Planner

Search our weather history database for the weather conditions in past years. The results will help you decide how hot, cold, wet, or windy it might be!

Date:

Astronomy

Jun. 12, 2013 Rise Set
Actual Time 6:04 AM MDT 9:07 PM MDT
Civil Twilight 5:31 AM MDT 9:41 PM MDT
Nautical Twilight 4:48 AM MDT 10:23 PM MDT
Astronomical Twilight 3:58 AM MDT 11:13 PM MDT
Moon 9:48 AM MDT (6/12) 11:44 PM MDT (6/12)
Length of Visible Light 16h 10m
Length of Day
15h 03m
Waxing Crescent, 14% of the Moon is Illuminated
Jun 12
Waxing Crescent
Jun 16
First Quarter
Jun 23
Full
Jun 29
Last Quarter
Jul 8
New

Hourly Weather History & Observations

Time (MDT) Temp. Dew Point Humidity Pressure Visibility Wind Dir Wind Speed Gust Speed Precip Events Conditions
12:35 AM 78.8 °F 33.8 °F 20% 29.98 in 10.0 mi WNW 10.4 mph - N/A   Scattered Clouds
12:55 AM 77.0 °F 35.6 °F 22% 29.98 in 10.0 mi WSW 10.4 mph - N/A   Scattered Clouds
1:15 AM 77.0 °F 35.6 °F 22% 29.98 in 10.0 mi SSW 8.1 mph - N/A   Partly Cloudy
1:35 AM 77.0 °F 35.6 °F 22% 29.98 in 10.0 mi WSW 8.1 mph - N/A   Clear
1:55 AM 77.0 °F 35.6 °F 22% 29.98 in 10.0 mi WSW 8.1 mph - N/A   Clear
2:15 AM 78.8 °F 35.6 °F 21% 29.98 in 10.0 mi WSW 12.7 mph 21.9 mph N/A   Clear
2:35 AM 77.0 °F 33.8 °F 21% 29.97 in 10.0 mi West 11.5 mph - N/A   Clear
2:55 AM 77.0 °F 35.6 °F 22% 29.97 in 10.0 mi West 19.6 mph 24.2 mph N/A   Clear
3:15 AM 77.0 °F 35.6 °F 22% 29.97 in 10.0 mi WSW 12.7 mph - N/A   Clear
3:35 AM 77.0 °F 35.6 °F 22% 29.97 in 10.0 mi NW 8.1 mph 17.3 mph N/A   Clear
3:55 AM 77.0 °F 35.6 °F 22% 29.97 in 10.0 mi NW 6.9 mph - N/A   Clear
4:15 AM 75.2 °F 37.4 °F 25% 29.97 in 10.0 mi WSW 6.9 mph - N/A   Clear
4:35 AM 75.2 °F 37.4 °F 25% 29.97 in 10.0 mi Calm Calm - N/A   Clear
4:55 AM 73.4 °F 37.4 °F 27% 29.97 in 10.0 mi ESE 6.9 mph - N/A   Clear
5:15 AM 73.4 °F 37.4 °F 27% 29.97 in 10.0 mi SSE 6.9 mph - N/A   Clear
5:35 AM 75.2 °F 35.6 °F 24% 29.97 in 10.0 mi SSW 5.8 mph - N/A   Clear
5:55 AM 71.6 °F 37.4 °F 29% 29.98 in 10.0 mi SE 6.9 mph - N/A   Clear
6:15 AM 71.6 °F 37.4 °F 29% 29.97 in 10.0 mi SSE 10.4 mph - N/A   Clear
6:35 AM 71.6 °F 37.4 °F 29% 29.98 in 10.0 mi SSE 8.1 mph - N/A   Clear
6:55 AM 69.8 °F 37.4 °F 31% 29.98 in 10.0 mi SSE 4.6 mph - N/A   Clear
7:15 AM 69.8 °F 37.4 °F 31% 29.99 in 10.0 mi SSE 5.8 mph - N/A   Clear
7:35 AM 69.8 °F 35.6 °F 28% 30.00 in 10.0 mi Calm Calm - N/A   Clear
7:55 AM 71.6 °F 35.6 °F 27% 30.00 in 10.0 mi Calm Calm - N/A   Clear
8:15 AM 71.6 °F 35.6 °F 27% 30.00 in 10.0 mi Calm Calm - N/A   Clear
8:35 AM 73.4 °F 35.6 °F 25% 29.99 in 10.0 mi Calm Calm - N/A   Clear
8:55 AM 75.2 °F 35.6 °F 24% 29.99 in 10.0 mi SSE 4.6 mph - N/A   Clear
9:15 AM 77.0 °F 35.6 °F 22% 29.99 in 10.0 mi South 5.8 mph - N/A   Clear
9:35 AM 78.8 °F 35.6 °F 21% 29.99 in 10.0 mi SE 4.6 mph - N/A   Clear
9:55 AM 80.6 °F 35.6 °F 20% 29.99 in 10.0 mi SE 9.2 mph - N/A   Clear
10:15 AM 80.6 °F 37.4 °F 21% 29.99 in 10.0 mi ESE 9.2 mph - N/A   Clear
10:35 AM 80.6 °F 37.4 °F 21% 29.98 in 10.0 mi ESE 13.8 mph - N/A   Clear
10:55 AM 82.4 °F 37.4 °F 20% 29.97 in 10.0 mi ESE 13.8 mph - N/A   Clear
11:15 AM 82.4 °F 37.4 °F 20% 29.97 in 10.0 mi SE 13.8 mph - N/A   Clear
11:35 AM 84.2 °F 35.6 °F 18% 29.96 in 10.0 mi ESE 16.1 mph - N/A   Clear
11:55 AM 86.0 °F 35.6 °F 17% 29.96 in 10.0 mi East 18.4 mph - N/A   Clear
12:15 PM 87.8 °F 35.6 °F 16% 29.96 in 10.0 mi SE 13.8 mph - N/A   Clear
12:35 PM 87.8 °F 35.6 °F 16% 29.95 in 10.0 mi ESE 17.3 mph 20.7 mph N/A   Clear
12:55 PM 87.8 °F 35.6 °F 16% 29.94 in 10.0 mi ESE 15.0 mph - N/A   Clear
1:15 PM 87.8 °F 33.8 °F 15% 29.93 in 10.0 mi East 12.7 mph - N/A   Clear
1:35 PM 87.8 °F 30.2 °F 13% 29.92 in 10.0 mi SSE 8.1 mph - N/A   Clear
1:55 PM 89.6 °F 30.2 °F 12% 29.91 in 10.0 mi SSW 17.3 mph 25.3 mph N/A   Clear
2:15 PM 91.4 °F 30.2 °F 11% 29.90 in 10.0 mi SW 10.4 mph 25.3 mph N/A   Clear
2:35 PM 91.4 °F 30.2 °F 11% 29.89 in 10.0 mi SW 18.4 mph 28.8 mph N/A   Clear
2:55 PM 93.2 °F 30.2 °F 11% 29.88 in 10.0 mi SSW 16.1 mph 20.7 mph N/A   Clear
3:15 PM 93.2 °F 30.2 °F 11% 29.87 in 10.0 mi SW 18.4 mph - N/A   Clear
3:55 PM 93.2 °F 30.2 °F 11% 29.85 in 10.0 mi SW 25.3 mph 29.9 mph N/A   Clear
4:15 PM 93.2 °F 28.4 °F 10% 29.85 in 10.0 mi SSW 24.2 mph 31.1 mph N/A   Clear
4:35 PM 93.2 °F 30.2 °F 11% 29.83 in 10.0 mi South 25.3 mph 31.1 mph N/A   Clear
4:55 PM 93.2 °F 28.4 °F 10% 29.83 in 10.0 mi SSW 19.6 mph 31.1 mph N/A   Clear
5:15 PM 93.2 °F 30.2 °F 11% 29.82 in 10.0 mi South 28.8 mph 34.5 mph N/A   Clear
5:35 PM 93.2 °F 28.4 °F 10% 29.82 in 10.0 mi SSW 25.3 mph 41.4 mph N/A   Clear
5:55 PM 93.2 °F 28.4 °F 10% 29.82 in 10.0 mi SW 25.3 mph 29.9 mph N/A   Clear
6:15 PM 91.4 °F 28.4 °F 10% 29.81 in 10.0 mi SW 19.6 mph 26.5 mph N/A   Clear
6:35 PM 91.4 °F 28.4 °F 10% 29.82 in 10.0 mi SW 28.8 mph 44.9 mph N/A   Clear
6:55 PM 91.4 °F 28.4 °F 10% 29.81 in 10.0 mi SW 31.1 mph 39.1 mph N/A   Clear
7:15 PM 89.6 °F 26.6 °F 10% 29.81 in 10.0 mi SW 26.5 mph 29.9 mph N/A   Clear
7:35 PM 89.6 °F 26.6 °F 10% 29.81 in 10.0 mi WSW 21.9 mph 27.6 mph N/A   Clear
7:55 PM 87.8 °F 26.6 °F 11% 29.83 in 10.0 mi West 29.9 mph 39.1 mph N/A   Clear
8:15 PM 84.2 °F 26.6 °F 12% 29.83 in 10.0 mi West 26.5 mph 41.4 mph N/A   Clear
8:35 PM 84.2 °F 28.4 °F 13% 29.86 in 10.0 mi West 15.0 mph 32.2 mph N/A   Clear
8:55 PM 84.2 °F 28.4 °F 13% 29.84 in 8.0 mi West 36.8 mph 47.2 mph N/A   Clear
9:15 PM 82.4 °F 30.2 °F 15% 29.83 in 10.0 mi West 32.2 mph 43.7 mph N/A   Clear
9:35 PM 82.4 °F 28.4 °F 14% 29.80 in 10.0 mi NW 39.1 mph 47.2 mph N/A   Clear
9:55 PM 82.4 °F 28.4 °F 14% 29.85 in 10.0 mi West 33.4 mph 48.3 mph N/A   Clear
10:15 PM 80.6 °F 28.4 °F 15% 29.84 in 10.0 mi WNW 26.5 mph 50.6 mph N/A   Partly Cloudy
10:35 PM 80.6 °F 28.4 °F 15% 29.83 in 10.0 mi West 16.1 mph - N/A   Partly Cloudy
10:55 PM 80.6 °F 28.4 °F 15% 29.83 in 10.0 mi West 11.5 mph - N/A   Clear
11:15 PM 82.4 °F 28.4 °F 14% 29.85 in 10.0 mi West 26.5 mph 32.2 mph N/A   Clear
11:35 PM 80.6 °F 26.6 °F 14% 29.85 in 10.0 mi West 18.4 mph 29.9 mph N/A   Clear
11:55 PM 80.6 °F 28.4 °F 15% 29.85 in 10.0 mi West 16.1 mph - N/A   Clear